SPACEBEE-111 (48904 NORAD) Tracking and Keplerian Element Data

This shows tracking and keplerian element data for the satellite.

Feedback or suggestion? Click here.




ElementValue
Catalog48904
NameSPACEBEE-111
Epoch Orbit1679
Epoch Day287.90238836
Epoch Year2021
RAAN55.1641
Inclination97.5293
Eccentricity0.0010167
Argument of Perigee224.601
Mean Anonmoly135.4404
Mean Motion15.12848108
Decay Rate4.399E-05
L11 48904U 21059AB 21287.90238836 .00004399 00000-0 25368-3 0 9993
L22 48904 97.5293 55.1641 0010167 224.6010 135.4404 15.12848108 16796

Live tracking and technical data element details for SPACEBEE-111 (NORAD 48904). SPACEBEE-111 can be tracked NOW for your location showing map with azimuth and elevation plus other details from your city location.

Track the satellite on the map from your city or location and see movement details for azimuth, elevation, latitude, longitude, range, height, and movement on the map or in text.







IsCatalogInMostPopularTable: catalog: 48904, numindb: 20
Update: records affected: 1



GetName: 48904 SPACEBEE-111

Hit Count: updated at: Tue, 19 Oct 2021 08:13:48 GMT